STARLINK-36702, 67714

Orbit data source: Space-Track

STARLINK-36702, 67714 is a payload satellite owned by SpaceX/Seattle (US) in SSO that was launched on Sat, 07 Feb 2026 UTC via an FALCON 9 launch vehicle from the Air Force Western Test Range (AFWTR). Payload-class satellites include a variety of spacecraft equipped with specific instruments for various scientific and technological missions. These include communications satellites like Starlink; space stations such as the ISS; scientific satellites like the Hubble; Earth observation satellites from companies like Planet Labs, Umbra, and HawkEye 360; GPS; miniature CubeSats for education and research; and military/defense satellites.

Loading next visibility...
Identifier
67714, 2026-025X
Orbit
SSO
Country
Flag of USUS
Related business
Manufacturer
SpaceX/Seattle
Mission
Operational spacecraft
Bus & Motor
STARLINK V2MO, Unknown motor
Mass
575 kg wet, ~530 kg dry
Launch date (UTC)
2026-02-07 (2 months ago)
Launch vehicle
FALCON 9
Launch site
Air Force Western Test Range (AFWTR)
Object type
Payload
Rocket body
Debris
Shape & HBR
Unknown shape, 17.7 m
Radar Cross Section
RCS unknown

Expand to show TLE details & history
Last TLE update: 19 hours ago

TLE from 19 hours ago
0 STARLINK-36702
1 67714U 26025X   26103.55574416  .00017445  00000-0  54137-3 0  9993
2 67714  97.2852 215.7141 0001470 100.6279 259.5129 15.33449214 11357
Epoch: 2026-04-13T13:20Z
TLE epoch observation values (Epoch: 2026-04-13T13:20:16.295Z)
Latitude
-0.00005°
Longitude
173.90155°
Altitude
468.826 km
Speed
7.632 km/s
True Right ascension
14h 22m 51s
True Declination
0° 00' 00"
Sunlit
Object was in full shadow at epoch
Visualization orbit readout
Latitude
Unknown
Longitude
Unknown
Altitude
Unknown
Speed
Unknown
Apparent Right ascension
Unknown
Apparent Declination
Unknown
Sunlit
N/A
Visualization observer readout
Local Sidereal Time
15:10:46
Azimuth
Unknown
Elevation
Unknown
Doppler factor
Unknown
Orbital elements
Apogee altitude
463.479 km
Perigee altitude
461.468 km
Semi-major axis
6,840.61 km
Eccentricity
0.00015
Inclination
97.2852°
RAAN
215.7141°
Arg. of periapsis
100.6279°
True anomaly
259.49634°
Mean anomaly
259.5129°
Eccentric anomaly
259.50462°
Mean motion
3.8362 °/min
Orbital period
93.84 mins
BSTAR
0.00054137
Loading maneuver chart data...
Computing Atmospheric mass density...
Loading historical data...
Loading historical data...
Loading historical data...
Loading historical data...
Loading historical data...
Loading historical data...
Loading historical data...

Documentation

Showing up to 5 results
|